Dallas Redbird, TX

4:59 AM CDT on July 25, 2017 (GMT -0500)
Redbird

Weather History for KRBD - May, 2014

Change the Weather History Date:

Friday, May 2, 2014

  Actual Average Record
Temperature  
Mean Temperature 68 °F -  
Max Temperature 82 °F 78 °F 90 °F (1998)
Min Temperature 55 °F 59 °F 44 °F (2013)
Cooling Degree Days 4    
Growing Degree Days 18 (Base 50)    
Moisture  
Dew Point 31 °F    
Average Humidity 29    
Maximum Humidity 49    
Minimum Humidity 12    
Precipitation  
Precipitation 0.00 in - - ()
Sea Level Pressure  
Sea Level Pressure 29.97 in    
Wind  
Wind Speed 6 mph (WSW)    
Max Wind Speed 14 mph    
Max Gust Speed 29 mph    
Visibility 10 miles    
Events      
Averages and records for this station are not official NWS values.
T = Trace of Precipitation, MM = Missing Value Source: NWS Daily Summary

Daily Weather History Graph

Daily Weather History Graph

Search for Another Location

Airport or City:

Trip Planner

Search our weather history database for the weather conditions in past years. The results will help you decide how hot, cold, wet, or windy it might be!

Date:

Astronomy

May. 02, 2014 Rise Set
Actual Time 6:39 AM CDT 8:09 PM CDT
Civil Twilight 6:13 AM CDT 8:36 PM CDT
Nautical Twilight 5:41 AM CDT 9:07 PM CDT
Astronomical Twilight 5:08 AM CDT 9:40 PM CDT
Moon 9:21 AM CDT (5/2) 11:30 PM CDT (5/2)
Length of Visible Light 14h 22m
Length of Day
13h 30m
Waxing Crescent, 12% of the Moon is Illuminated
May 2
Waxing Crescent
May 6
First Quarter
May 14
Full
May 21
Last Quarter
May 28
New

Hourly Weather History & Observations

Time (CDT) Temp. Dew Point Humidity Pressure Visibility Wind Dir Wind Speed Gust Speed Precip Events Conditions
12:53 AM 59.0 °F 36.0 °F 42% 30.03 in 10.0 mi South 3.5 mph - N/A   Clear
1:53 AM 59.0 °F 34.0 °F 39% 30.00 in 10.0 mi South 3.5 mph - N/A   Clear
2:53 AM 55.0 °F 36.0 °F 49% 29.99 in 10.0 mi SSW 3.5 mph - N/A   Clear
3:53 AM 57.0 °F 33.1 °F 40% 29.99 in 10.0 mi SSW 4.6 mph - N/A   Clear
4:53 AM 57.0 °F 33.1 °F 40% 29.99 in 10.0 mi SSW 4.6 mph - N/A   Clear
5:53 AM 55.9 °F 34.0 °F 44% 30.00 in 10.0 mi SW 4.6 mph - N/A   Clear
6:53 AM 55.9 °F 34.0 °F 44% 30.01 in 10.0 mi SSW 3.5 mph - N/A   Clear
7:53 AM 61.0 °F 35.1 °F 38% 30.02 in 10.0 mi WSW 5.8 mph - N/A   Partly Cloudy
8:53 AM 64.9 °F 33.1 °F 31% 30.02 in 10.0 mi West 6.9 mph - N/A   Scattered Clouds
9:53 AM 68.0 °F 35.1 °F 30% 30.02 in 10.0 mi WNW 9.2 mph - N/A   Clear
10:53 AM 73.9 °F 35.1 °F 24% 30.02 in 10.0 mi WNW 9.2 mph - N/A   Clear
11:53 AM 77.0 °F 33.1 °F 20% 30.01 in 10.0 mi Variable 6.9 mph 17.3 mph N/A   Clear
12:53 PM 79.0 °F 28.0 °F 15% 29.99 in 10.0 mi NW 13.8 mph 20.7 mph N/A   Clear
1:53 PM 80.1 °F 23.0 °F 12% 29.96 in 10.0 mi West 12.7 mph 28.8 mph N/A   Clear
2:53 PM 80.1 °F 25.0 °F 13% 29.93 in 10.0 mi WNW 9.2 mph - N/A   Clear
3:53 PM 81.0 °F 23.0 °F 12% 29.91 in 10.0 mi West 8.1 mph 17.3 mph N/A   Partly Cloudy
4:53 PM 82.0 °F 24.1 °F 12% 29.89 in 10.0 mi NW 10.4 mph 18.4 mph N/A   Partly Cloudy
5:53 PM 82.0 °F 25.0 °F 12% 29.88 in 10.0 mi NNW 11.5 mph 21.9 mph N/A   Partly Cloudy
7:53 PM 75.0 °F 28.0 °F 18% 29.89 in 10.0 mi WNW 3.5 mph - N/A   Clear
8:53 PM 72.0 °F 30.0 °F 21% 29.91 in 10.0 mi North 4.6 mph - N/A   Clear
9:53 PM 71.1 °F 32.0 °F 24% 29.94 in 10.0 mi Calm Calm - N/A   Clear
10:53 PM 64.9 °F 35.1 °F 33% 29.96 in 10.0 mi East 4.6 mph - N/A   Clear
11:53 PM 57.9 °F 37.9 °F 47% 29.96 in 10.0 mi ESE 3.5 mph - N/A   Clear